Regional Weather Roundup
Issued by NWS

Home | Current Version | Previous Version | Graphics & Text | Print | Product List | Glossary On
Versions: 1 2 3 4 5 6 7 8 9 10 11 12 13 14 15 16 17 18 19 20 21 22 23 24 25 26 27 28 29 30 31 32 33 34 35 36 37 38 39 40 41 42 43 44 45 46 47 48 49 50
000
ASUS45 KTFX 201104
RWRMT
MONTANA HOURLY WEATHER ROUNDUP
NATIONAL WEATHER SERVICE GREAT FALLS MT
404 AM MST SAT DEC 20 2014

NOTE: "FAIR" INDICATES FEW OR NO CLOUDS BELOW 12000 FEET WITH NO
SIGNIFICANT WEATHER AND/OR OBSTRUCTIONS TO VISIBILITY.

* THESE STATIONS ARE NOT UNDER NWS QUALITY CONTROL. THEY DO NOT
   REPORT WEATHER SUCH AS PRECIPITATION OR FOG.

MTZ001>007-043-201200-
WEST OF THE DIVIDE
CITY           SKY/WX    TMP DP  RH WIND       PRES   REMARKS
KALISPELL      MOCLDY    32  30  92 CALM      29.97R
MISSOULA       FOG       25  23  92 CALM      30.02S VSB M1/4
BUTTE          PTCLDY    21  16  81 N/A       29.96S
MULLAN PASS    CLOUDY    25  23  92 VRB3      29.90F
* ESSEX        N/A       32  31  96 N/A        N/A
* LINCOLN      N/A       31  25  78 S5         N/A   WCI  26
* LOOKOUT PASS N/A       28  28 100 SE1        N/A
* POLSON       N/A       30  30 100 N/A        N/A
* RONAN APT    MOCLDY    34  30  85 N/A        N/A
* SEELEY LAKE  N/A       24  23  96 NE2        N/A
* THOMP F APT  PTCLDY    26  25  96 NE3G8      N/A
* YAAK HILL    N/A       34  32  92 SW1        N/A
$$

MTZ008-052>055-201200-
SOUTHWEST MONTANA
CITY           SKY/WX    TMP DP  RH WIND       PRES   REMARKS
BOZEMAN        CLEAR     27  23  85 SE3       29.96F
DILLON         MOCLDY    28  19  69 S8        29.96S WCI  20
* W YELLOWSTON CLEAR     24  23  96 SW3        N/A
* THREE FORKS  PTCLDY    30  30 100 N/A        N/A
* BOULDER HILL N/A       23  17  78 SW2        N/A
* MONIDA PASS  N/A       22  22 100 SE9        N/A   WCI  12
* RAYNOLDS PAS N/A       21   5  50 SE13       N/A   WCI   8
* WHITEHALL    N/A       31  24  75 NE2G13     N/A
* WISE RIVER   N/A       24  20  85 N/A        N/A
$$

MTZ009>010-012-014-046-048-049-054-201200-
EAST SLOPES AND CENTRAL MONTANA
CITY           SKY/WX    TMP DP  RH WIND       PRES   REMARKS
CUT BANK       CLEAR     34  23  64 W25       29.79S WCI  21
GREAT FALLS    CLEAR     34  21  59 SW16      29.85S WCI  24
HELENA         CLEAR     34  21  59 SW16      29.93F WCI  24
* DEARBORN     N/A       40  21  47 S12G20     N/A   WCI  33
* EAST GLACIER N/A       31  20  64 W21G29     N/A   WCI  18
* MONARCH      N/A       31  14  49 SW16       N/A   WCI  20
* PENDROY      N/A       32  17  54 W11G22     N/A   WCI  23
* SWEET GRASS  N/A       32  22  67 W21G26     N/A   WCI  20
$$

MTZ011-013-016-021-035-040-045-047-050-051-201200-
NORTH CENTRAL MONTANA
CITY           SKY/WX    TMP DP  RH WIND       PRES   REMARKS
HAVRE          CLOUDY    36  28  73 SW14      29.81R WCI  27
LEWISTOWN      CLEAR     30  21  69 SW12      29.86F WCI  20
* N BAR RANCH  CLEAR     36  19  50 W9        29.85F WCI  29
* CHESTER      N/A       29  23  78 SW2        N/A
* DENTON       N/A       35  22  59 SW16G21    N/A   WCI  25
* GEYSER       N/A       31  18  59 W11G16     N/A   WCI  22
* JUDITH GAP   N/A       29  22  75 SW7        N/A   WCI  22
* LOMA         N/A       39  25  57 SW9G15     N/A   WCI  33
$$

MTZ017>020-022>027-061-062-201200-
NORTHEAST MONTANA
CITY           SKY/WX    TMP DP  RH WIND       PRES   REMARKS
GLASGOW        PTCLDY    27  23  85 SE6       29.81F WCI  20
GLENDIVE       CLOUDY    30  25  82 S7        29.85S WCI  23
JORDAN         CLEAR     28  25  89 NW8       29.84R WCI  20
SIDNEY         CLOUDY    23  19  85 CALM      29.87F
WOLF POINT     CLOUDY    25  21  85 CALM      29.84F
* BEAVER HILL  N/A       34  24  67 S5         N/A   WCI  29
* CIRCLE       N/A       35  29  79 W3         N/A
* LINDSAY DVD  N/A       38  27  65 W13        N/A   WCI  30
* NAVAJO       N/A       24  22  92 S3         N/A
* SACO         N/A       28  27  96 E7         N/A   WCI  21
$$

MTZ028>042-056>058-201200-
SOUTHCENTRAL AND SOUTHEAST MONTANA
CITY           SKY/WX    TMP DP  RH WIND       PRES   REMARKS
BAKER          CLOUDY    32  27  82 W3        29.85F
BILLINGS       MOCLDY    34  21  59 SW12      29.91F WCI  25
LIVINGSTON     PTCLDY    37  25  62 W15       29.91F WCI  28
MILES CITY     PTCLDY    28  23  81 SW8       29.86F WCI  20
* LAUREL APT   PTCLDY    28  16  61 N/A        N/A
* ROUNDUP APT  MOCLDY    41  21  45 W20        N/A
* HYSHAM       N/A       34  20  57 W6         N/A   WCI  29
* LAME DEER    N/A       35  21  57 W8         N/A   WCI  28
* REED POINT   N/A       25  23  92 N/A        N/A
* ROSCOE HILL  N/A       36   8  31 S2G9       N/A
$$

REGIONAL REPORTS...DAKOTAS
CITY           SKY/WX    TMP DP  RH WIND       PRES   REMARKS
WILLISTON      MOCLDY    14  10  84 CALM      29.86F
DICKINSON      CLOUDY    28  25  89 S7        29.83F WCI  21
BEACH          CLOUDY    28  28 100 SE3       29.84F
CROSBY         FOG       18  18 100 SE6       29.86F VSB 1/2  WCI  10
WATFORD CITY   FAIR      14  14 100 CALM      29.84F
BISMARCK       FOG       16  14  92 E7        29.93F VSB 3/4  WCI   6
GRAND FORKS    FOG       28  27  96 S7        30.00S WCI  21
FARGO          FOG       30  28  92 S8        30.02F WCI  22
BUFFALO SD     MOCLDY    34  21  59 S5        29.80S WCI  29
RAPID CITY     CLOUDY    30  21  69 NW8       29.88F WCI  22
$$

REGIONAL REPORTS...WYOMING/IDAHO/WASHINGTON
CITY           SKY/WX    TMP DP  RH WIND       PRES   REMARKS
GILLETTE       CLOUDY    34  25  70 NW6       29.91R WCI  29
SHERIDAN       CLOUDY    30  23  75 CALM      29.90S
CODY           PTCLDY    41  21  45 SW21G31   29.91S
YELLOWSTONE LA PTCLDY    25  19  78 VRB3      30.01F
SALMON         CLOUDY    27  25  92 CALM      30.03S VSB M1/4
MULLAN PASS    CLOUDY    25  23  92 VRB3      29.90S
SAND POINT     CLOUDY    34  34 100 CALM      29.98F
SPOKANE        CLOUDY    36  34  92 SE3       29.94F

$$




USA.gov is the U.S. government's official web portal to all federal, state and local government web resources and services.